FENGYUN 1C DEB

Satellite information

Favourite Embed

Satellite Type and Status

DEBRISIN ORBIT

Key statistics

Satellite FENGYUN 1C DEB at a glance.

Uptime

9659

Days in orbit

Revolutions

≈ 14.3

Per day

Orbit

SSO

Sun Synchronous Orbit

Inclination

99.1

Latest

Satellite identification and parameters

Extended collection of information and parameters for FENGYUN 1C DEB.

Object identification

Identified? True

Debris? True

Object name: FENGYUN 1C DEB

International designator: 1999-025CKP

Object number (NORAD): 31888

Object ID (CCSDS): 31888

Country: PEOPLES REPUBLIC OF CHINA (PRC)

Current information (Y/N): Y

RCS size: SMALL

Orbital parameters

Period: 100.487 minutes

Inclination: 99.1468 deg

SMA: 7159.803 km

Apoapsis: 797.131 km

Periapsis: 766.204 km

RAAN: 215.021 deg

Eccentricy: 0.00215972

Argument of periapsis: 17.9844 deg

Mean anomaly: 342.2098 deg

Mean motion: 14.33016512 rev/day

Mean motion (dot): 0.00009848 rev/day2

B* drag term: 0.0036003218 1/REarth

Two-line elements (TLE)

Creation date: Oct. 19, 2025, 2:20 a.m.

Reference frame: TEME

Reference center: EARTH

Epoch: Oct. 18, 2025, 5:45 p.m. UTC

TLE line 0: 0 FENGYUN 1C DEB

TLE line 1: 1 31888U 99025CKP 25291.73977055 .00009848 00000-0 36003-2 0 9998

TLE line 2: 2 31888 99.1468 215.0210 0021597 17.9844 342.2098 14.33016512948493

Live tracking on map

Real-time ground track for satellite FENGYUN 1C DEB.

In-orbit conjunctions

A list of the most updated potential collisions computed for object FENGYUN 1C DEB.

Target Orbit TCA Probability of collision Miss distance Type
CZ-4B R/B SSO 2025-08-12 17:14:53 0.0001600973 453.0 (m) ROCKET BODY
COSMOS 836 LEO 2024-12-31 02:24:36 0.0001643757 759.0 (m) PAYLOAD

Associated space launch

Chinese polar orbiting meteorological satellite

FENGYUN 1C DEB was lifted into orbit during the mission ‘Long March 4B | Feng Yun 1C’, on board a Long March 4B space rocket.

The launch took place on May 10, 1999, 1:33 a.m. from Launch Complex 7.

For more information about the launch, click the button.

Launch to space Long March 4B | Feng Yun 1C
Long March 4B | Feng Yun 1C

Agency: N/A

Status: Launch Successful

Launch date: May 10, 1999, 1:33 a.m. UTC

Rocket: Long March 4B

Launch pad: Launch Complex 7

Location: Taiyuan Satellite Launch Center, People's Republic of China

...

Latest news about this satellite

There are no fresh news available about this satellite. Check back as we update our databases every day.


Newsletter sign-up

Weekly statistics, charts and insights to help you stay on top of the space industry.